Home   Weather   Welland   Past weeks

Flag for Canada Past Weather in Welland, Ontario, Canada — Yesterday and Last 2 Weeks

Now
37 °F

Chilly.


Feels Like: 33 °F
Forecast: 34 / 41 °F
Wind: 5 mph from North

Location: Port Colborne Airport

Current Time: Dec 4, 2016 at 9:24:52 am

Latest Report: Dec 4, 2016 at 8:00 am


Visibility: N/A

Pressure: 30.27 "Hg

Humidity: 80%

Dew Point: 31 °F

Location of WellandLocation

Past Weather in Welland — Graph

°F

Welland Temperature Yesterday

Maximum temperature yesterday: 41 °F (at 3:00 pm)
Minimum temperature yesterday: 38 °F (at 8:00 am)
Average temperature yesterday: 39 °F

High & Low Weather Summary for the Past Weeks

 TemperatureHumidityPressure
High57 °F (Nov 30, 10:00 am)96% (Nov 24, 1:00 am)30.38 "Hg (Nov 24, 1:00 am)
Low28 °F (Nov 23, 4:00 am)48% (Nov 21, 1:00 pm)29.45 "Hg (Nov 30, 8:00 pm)
Average40 °F72%30.00 "Hg
* Reported Nov 19 8:00 am — Dec 4 8:00 am, Welland, Weather by CustomWeather, © 2016

Note: Actual official high and low records may vary slightly from our data, if they occured in-between our weather recording intervals... More about our weather records

Advertising

Welland Weather History for the Previous 24 Hours

Scroll right to see more
 ConditionsComfort  
Time TempWeatherWind HumidityBarometerVisibility
8:00 am
Sun, Dec 4
37 °FChilly.5 mph80%30.27 "HgN/A
7:00 am36 °FChilly.3 mph88%30.26 "HgN/A
6:00 am35 °FChilly.6 mph88%30.26 "HgN/A
5:00 am37 °FChilly.7 mph81%30.27 "HgN/A
4:00 am37 °FChilly.8 mph77%30.28 "HgN/A
3:00 am37 °FChilly.7 mph84%30.29 "HgN/A
2:00 am37 °FChilly.7 mph78%30.27 "HgN/A
1:00 am38 °FChilly.8 mph76%30.27 "HgN/A
12:00 am38 °FChilly.8 mph76%30.27 "HgN/A
11:00 pm
Sat, Dec 3
38 °FChilly.8 mph78%30.27 "HgN/A
10:00 pm38 °FChilly.8 mph78%30.25 "HgN/A
9:00 pm38 °FChilly.9 mph82%30.25 "HgN/A
8:00 pm38 °FChilly.12 mph75%30.26 "HgN/A
7:00 pm39 °FChilly.10 mph75%30.27 "HgN/A
6:00 pm39 °FChilly.7 mph73%30.25 "HgN/A
5:00 pm40 °FQuite cool.9 mph65%30.24 "HgN/A
4:00 pm41 °FQuite cool.8 mph61%30.25 "HgN/A
3:00 pm41 °FQuite cool.12 mph63%30.22 "HgN/A
2:00 pm38 °FChilly.13 mph72%30.19 "HgN/A
1:00 pm40 °FQuite cool.15 mph70%30.19 "HgN/A
12:00 pm40 °FChilly.15 mph76%30.21 "HgN/A
11:00 am40 °FChilly.15 mph73%30.23 "HgN/A
10:00 am40 °FChilly.14 mph73%30.22 "HgN/A
9:00 am38 °FChilly.13 mph80%30.20 "HgN/A
Weather by CustomWeather, © 2016

See weather overviewHow to use our weather pages